TimeCDT,TemperatureF,Dew PointF,Humidity,Sea Level PressureIn,VisibilityMPH,Wind Direction,Wind SpeedMPH,Gust SpeedMPH,PrecipitationIn,Events,Conditions,WindDirDegrees,DateUTC
12:52 AM,64.9,60.1,84,29.75,10.0,South,12.7,-,N/A,,Clear,180,2013-05-21 05:52:00
1:52 AM,64.0,60.1,87,29.74,10.0,South,12.7,-,0.00,,Scattered Clouds,190,2013-05-21 06:52:00
2:52 AM,62.1,59.0,90,29.72,10.0,South,10.4,-,N/A,,Clear,180,2013-05-21 07:52:00
3:52 AM,62.1,59.0,90,29.76,10.0,South,10.4,-,N/A,,Clear,170,2013-05-21 08:52:00
4:52 AM,62.1,59.0,90,29.78,10.0,South,6.9,-,N/A,,Partly Cloudy,180,2013-05-21 09:52:00
5:52 AM,62.1,57.9,86,29.77,10.0,SSE,9.2,-,N/A,,Partly Cloudy,150,2013-05-21 10:52:00
6:52 AM,62.1,59.0,90,29.80,10.0,WSW,3.5,-,N/A,,Scattered Clouds,250,2013-05-21 11:52:00
7:52 AM,64.9,59.0,81,29.81,10.0,WSW,6.9,-,N/A,,Clear,250,2013-05-21 12:52:00
8:52 AM,64.9,60.1,84,29.81,10.0,SW,5.8,-,N/A,,Clear,230,2013-05-21 13:52:00
9:52 AM,66.9,61.0,81,29.79,10.0,WSW,6.9,-,N/A,,Clear,250,2013-05-21 14:52:00
10:52 AM,66.9,62.1,84,29.83,10.0,SSW,8.1,-,N/A,,Clear,210,2013-05-21 15:52:00
11:48 AM,66.2,60.8,83,29.82,10.0,SW,5.8,17.3,N/A,,Mostly Cloudy,220,2013-05-21 16:48:00
11:52 AM,66.9,60.1,79,29.82,10.0,West,10.4,-,N/A,,Mostly Cloudy,260,2013-05-21 16:52:00
12:24 PM,66.0,60.1,81,29.82,10.0,SSW,10.4,-,0.00,,Mostly Cloudy,210,2013-05-21 17:24:00
12:52 PM,66.0,60.1,81,29.83,10.0,West,12.7,-,0.00,,Mostly Cloudy,270,2013-05-21 17:52:00
1:00 PM,66.0,60.1,81,29.86,10.0,West,12.7,-,N/A,,Overcast,260,2013-05-21 18:00:00
1:52 PM,64.9,57.9,78,29.82,10.0,South,19.6,32.2,N/A,,Scattered Clouds,190,2013-05-21 18:52:00
2:42 PM,64.0,59.0,84,29.79,10.0,SSW,8.1,-,N/A,,Mostly Cloudy,210,2013-05-21 19:42:00
2:52 PM,64.9,59.0,81,29.74,10.0,SSE,5.8,-,N/A,,Overcast,160,2013-05-21 19:52:00
3:45 PM,69.1,60.1,73,29.80,10.0,WNW,8.1,-,N/A,,Scattered Clouds,300,2013-05-21 20:45:00
3:52 PM,69.1,59.0,70,29.78,10.0,West,10.4,-,N/A,,Partly Cloudy,260,2013-05-21 20:52:00
4:52 PM,68.0,59.0,73,29.79,10.0,WSW,11.5,-,N/A,,Clear,250,2013-05-21 21:52:00
5:20 PM,66.9,59.0,76,29.82,10.0,SW,16.1,21.9,N/A,,Mostly Cloudy,230,2013-05-21 22:20:00
5:52 PM,64.9,60.1,84,29.77,10.0,SSW,10.4,-,N/A,,Scattered Clouds,210,2013-05-21 22:52:00
6:52 PM,64.0,55.9,75,29.69,10.0,South,17.3,-,0.00,,Clear,180,2013-05-21 23:52:00
7:52 PM,64.9,55.0,70,29.57,10.0,SSE,21.9,29.9,N/A,,Clear,150,2013-05-22 00:52:00
8:07 PM,66.0,54.0,65,29.69,10.0,WSW,16.1,36.8,N/A,,Partly Cloudy,250,2013-05-22 01:07:00
8:52 PM,64.0,57.0,78,29.70,10.0,NW,5.8,-,N/A,,Clear,310,2013-05-22 01:52:00
9:52 PM,61.0,57.9,90,29.75,10.0,WSW,8.1,-,N/A,,Clear,240,2013-05-22 02:52:00
10:52 PM,61.0,57.0,87,29.76,10.0,West,6.9,-,N/A,,Mostly Cloudy,260,2013-05-22 03:52:00
11:52 PM,61.0,55.9,83,29.77,10.0,WSW,8.1,-,N/A,,Overcast,250,2013-05-22 04:52:00